sat.trackr.live / text

‹ back to catalog

STARLINK-36544

NORAD 67517 · 2026-012AA

PAYLOAD ACTIVE UNKNOWN

§ Identity

Operator
Country
US
Launch date
2026-01-18
Launch site
AFETR
Launch vehicle
Mass (kg)
RCS (m²)

Purposes: comms

External: N2YO · Heavens-Above · Gunter

§ Orbital elements

Epoch: 2026-09-19T10:29:48.044832Z

Period
94.27 min
Inclination
43.0037°
Eccentricity
0.0001698
Mean motion
15.27591143 rev/d
Perigee alt
481.9 km
Apogee alt
484.2 km
Semi-major
6,861.2 km
B*
3.7713e-4
RAAN
300.1619°
Arg perigee
279.7657°
Mean anomaly
80.3003°
Rev number
3,739

§ Raw data

STARLINK-365441 67517U 26012AA  26262.43736163  .00010133  00000+0  37713-3 0  99992 67517  43.0037 300.1619 0001698 279.7657  80.3003 15.27591143 37396

JSON: /api/v1/satellites/67517 · /tle

For live sub-satellite position, see the globe view (requires WebGL).

§ Visibility from observer

Set your observer location to see the next 7 days of passes ≥ 10°. The values pass through the URL so the page stays shareable.

No JS? Fill the form by hand. The geolocation button needs JavaScript.